Simultaneous Nadir Overpasses (SNOs) Predictions

Prediction of SNOs near US between AQUA and NPP Satellite Orbit:

Table of predicted SNOs near US for the next 10.0 days since TLE Epoch: 1/4/2020
Index Date (AQUA) Time (AQUA) AQUA Lat,Lon Date (NPP) Time (NPP) NPP Lat,Lon Distance(km) Time Diff (sec)
1 01/04/2020 06:30:15 46.05, -65.13 01/04/2020 06:30:10 46.39, -67.13 158.31 5
2 01/04/2020 08:08:03 49.91, -88.32 01/04/2020 08:10:30 50.41, -90.79 184.62 147
3 01/04/2020 09:46:56 49.92,-113.04 01/04/2020 09:51:58 50.52,-116.12 229.03 302
4 01/06/2020 19:06:13 49.98, -92.54 01/06/2020 19:00:46 49.68, -94.36 134.63 327
5 01/06/2020 20:45:06 49.98,-117.26 01/06/2020 20:42:14 49.58,-119.68 179.90 172
6 01/09/2020 10:11:58 26.60,-125.00 01/09/2020 10:05:27 25.41,-126.01 166.77 391
7 01/12/2020 07:18:36 49.92, -75.95 01/12/2020 07:19:41 50.33, -78.13 161.83 65
8 01/12/2020 08:57:29 49.92,-100.67 01/12/2020 09:01:08 50.49,-103.43 206.29 219




NCC Satellite Simultaneous Nadir Overpasses (SNOs) Prediction Service
